This is the latest recevied weather packets stored in our database for station/object EW1917. If no packets are shown the sender has not sent any weather packets the latest 10 day(s).
| Time | Temp. | Humidity | Pressure | Rain* | Wind** | Luminosity | Snow |
|---|---|---|---|---|---|---|---|
| 1778303571 | 9.44° C | 90% | 1015.5 hPa | 0 mm | - | 25 W/m² | - |
| 1778302373 | 9.44° C | 90% | 1015.3 hPa | 0 mm | - | 19 W/m² | - |
| 1778301172 | 9.44° C | 90% | 1015.2 hPa | 0 mm | - | 14 W/m² | - |
| 1778300574 | 9.44° C | 90% | 1015.1 hPa | 0 mm | - | 11 W/m² | - |
| 1778300271 | 9.44° C | 90% | 1015.1 hPa | 0 mm | - | 9 W/m² | - |
| 1778299971 | 9.44° C | 91% | 1015.1 hPa | 0 mm | - | 7 W/m² | - |
| 1778299671 | 9.44° C | 91% | 1015.2 hPa | 0 mm | - | 5 W/m² | - |
| 1778299080 | 9.44° C | 91% | 1015.1 hPa | 0 mm | - | 0 W/m² | - |
| 1778298771 | 9.44° C | 90% | 1015.1 hPa | 0 mm | - | 0 W/m² | - |
| 1778298471 | 9.44° C | 90% | 1015 hPa | 0 mm | - | 0 W/m² | - |
| 1778298171 | 10° C | 91% | 1015 hPa | 0 mm | - | 0 W/m² | - |
| 1778297574 | 9.44° C | 91% | 1015.2 hPa | 0 mm | - | 0 W/m² | - |
| 1778296974 | 9.44° C | 92% | 1015.2 hPa | 0 mm | - | 0 W/m² | - |
| 1778296071 | 10° C | 91% | 1015.2 hPa | 0 mm | - | 0 W/m² | - |
| 1778295474 | 10° C | 91% | 1015.1 hPa | 0 mm | - | 0 W/m² | - |
| 1778294871 | 10° C | 91% | 1015 hPa | 0 mm | - | 0 W/m² | - |
| 1778293971 | 10° C | 92% | 1015 hPa | 0 mm | - | 0 W/m² | - |
| 1778293674 | 10° C | 92% | 1015 hPa | 0 mm | - | 0 W/m² | - |
| 1778292812 | 10° C | 90% | 1015 hPa | 0 mm | - | 0 W/m² | - |
| 1778290074 | 10.56° C | 90% | 1015.2 hPa | 0 mm | - | 0 W/m² | - |
| 1778289471 | 10.56° C | 92% | 1015.1 hPa | 0 mm | - | 0 W/m² | - |
| 1778286474 | 10.56° C | 89% | 1015.2 hPa | 0 mm | - | 0 W/m² | - |
| 1778285875 | 11.11° C | 91% | 1015.2 hPa | 0 mm | - | 0 W/m² | - |
| 1778284675 | 10.56° C | 89% | 1015.3 hPa | 0 mm | - | 0 W/m² | - |
| 1778283471 | 11.11° C | 88% | 1015.2 hPa | 0 mm | - | 0 W/m² | - |
* Rain latest hour (hover to see other rain measurements)
** Current wind speed in m/s (hover to see current wind gust speed)